星链-33973 (STARLINK-33973)

导读

STARLINK-33973是美国太空探索技术公司星链星座的一员,于2025年5月10日由美国发射升空。星链项目旨在搭建全球卫星互联网通信网络,为全球偏远地区、海洋空域等场景提供低延迟高速网络覆盖,该卫星入轨后会和其他星链卫星协同组网,进一步扩大星链系统的服务覆盖范围,推进全球卫星互联网部署进程。

基本信息
目录编号:
63894
目录名称:
STARLINK-33973
国际标识:
2025-095E
轨道中心:
EARTH
卫星名称:
星链-33973
卫星全名:
星链-33973 (STARLINK-33973)
卫星状态:
在轨 (已飞行400 天)
发射日期:
2025-05-10 UTC
国别 :
美国 (US)
星等 :
--
轨道信息
数据来源 国际轨道数据
星历时间: 2026-06-13T13:25:38+0800
22小时前
查看轨道信息
半长轴: 6861.124km
偏心率: 0.0002527
轨道倾角: 42.998°
近地点辐角 277.758°
升交点赤经 356.268°
平近点角 82.298°
近地点: 481.253km
远地点: 484.721km
周期: 94.265分钟
每日圈数: 15.276008
详细信息
固有亮度:
5
最大亮度:
2.5
卫星平台:
Starlink V1.0
覆盖范围:
全球
运营商:
太空探索技术公司
运营商所在国:
美国
制造商(研发单位):
太空探索技术公司
制造商所在国:
美国
使用方式:
暂无
卫星简介
Starlink 计划是 SpaceX 推出的全球卫星互联网项目,通过发射低轨道卫星,为全球尤其是偏远地区提供高速、低延迟的互联网服务。自 2019 年起,Starlink 已部署数千颗卫星,旨在缩小全球数字鸿沟,推动互联网普及。该项目还为军事、航空等行业提供通信支持,带来广泛经济效益。
2D轨道图
3D轨道图
轨道高度分析图
轨道倾角分析图
轨道综合分析图
查看轨道综合分析图